Kekaha, HI

7:10 AM HST on December 10, 2016 (GMT -1000)
Barking Sands PMRF

Weather History for PHBK - June, 2014

Change the Weather History Date:

Tuesday, June 17, 2014

  Actual Average Record
Temperature  
Mean Temperature 74 °F -  
Max Temperature 80 °F 86 °F 91 °F (1968)
Min Temperature 69 °F 67 °F 62 °F (1959)
Cooling Degree Days 10    
Growing Degree Days 24 (Base 50)    
Moisture  
Dew Point 65 °F    
Average Humidity 73    
Maximum Humidity 84    
Minimum Humidity 60    
Precipitation  
Precipitation 0.03 in - - ()
Sea Level Pressure  
Sea Level Pressure 30.01 in    
Wind  
Wind Speed 4 mph (NE)    
Max Wind Speed 6 mph    
Max Gust Speed -    
Visibility 10 miles    
Events      
Averages and records for this station are not official NWS values.
T = Trace of Precipitation, MM = Missing Value Source: NWS Daily Summary

Daily Weather History Graph

Daily Weather History Graph

Search for Another Location

Airport or City:

Trip Planner

Search our weather history database for the weather conditions in past years. The results will help you decide how hot, cold, wet, or windy it might be!

Date:

Astronomy

Jun. 17, 2014 Rise Set
Actual Time 5:55 AM HST 7:24 PM HST
Civil Twilight 5:30 AM HST 7:49 PM HST
Nautical Twilight 5:00 AM HST 8:19 PM HST
Astronomical Twilight 4:29 AM HST 8:50 PM HST
Moon 11:38 PM HST (6/17) 10:50 AM HST (6/17)
Length of Visible Light 14h 18m
Length of Day
13h 28m
Waning Gibbous, 71% of the Moon is Illuminated
Jun 17
Waning Gibbous
Jun 19
Last Quarter
Jun 26
New
Jul 5
First Quarter
Jul 12
Full

Hourly Weather History & Observations

Time (HST) Temp. Heat Index Dew Point Humidity Pressure Visibility Wind Dir Wind Speed Gust Speed Precip Events Conditions
12:56 AM 69.1 °F - 62.1 °F 78% 30.01 in 10.0 mi East 4.6 mph - N/A   Clear
1:56 AM 69.1 °F - 62.1 °F 78% 30.00 in 10.0 mi ENE 4.6 mph - N/A   Clear
2:56 AM 69.1 °F - 63.0 °F 81% 30.00 in 10.0 mi ENE 4.6 mph - N/A   Scattered Clouds
3:56 AM 70.0 °F - 62.1 °F 76% 30.00 in 10.0 mi ENE 4.6 mph - N/A   Scattered Clouds
4:56 AM 70.0 °F - 62.1 °F 76% 30.00 in 10.0 mi East 3.5 mph - N/A   Mostly Cloudy
5:56 AM 69.1 °F - 63.0 °F 81% 30.01 in 10.0 mi ENE 3.5 mph - N/A   Mostly Cloudy
6:56 AM 73.0 °F - 64.9 °F 76% 30.01 in 10.0 mi Calm Calm - N/A   Scattered Clouds
7:56 AM 77.0 °F - 66.0 °F 69% 30.02 in 10.0 mi South 3.5 mph - N/A   Clear
8:56 AM 78.1 °F - 66.0 °F 66% 30.03 in 10.0 mi SW 4.6 mph - N/A   Clear
9:56 AM 79.0 °F - 66.0 °F 64% 30.03 in 10.0 mi WSW 5.8 mph - N/A   Scattered Clouds
10:56 AM 79.0 °F - 66.0 °F 64% 30.03 in 10.0 mi WSW 5.8 mph - N/A   Mostly Cloudy
11:56 AM 79.0 °F - 64.0 °F 60% 30.03 in 10.0 mi ENE 3.5 mph - 0.01 in   Overcast
12:56 PM 79.0 °F - 64.9 °F 62% 30.01 in 10.0 mi West 5.8 mph - N/A   Overcast
1:56 PM 77.0 °F - 69.1 °F 76% 30.01 in 10.0 mi Variable 3.5 mph - 0.02 in   Overcast
2:56 PM 79.0 °F - 66.0 °F 64% 29.99 in 10.0 mi SW 4.6 mph - N/A   Overcast
3:56 PM 80.1 °F 82.3 °F 66.9 °F 64% 29.98 in 10.0 mi NW 4.6 mph - N/A   Mostly Cloudy
4:56 PM 79.0 °F - 66.9 °F 66% 29.97 in 10.0 mi WNW 3.5 mph - 0.00 in   Overcast
5:56 PM 77.0 °F - 69.1 °F 76% 29.98 in 10.0 mi Calm Calm - 0.00 in   Mostly Cloudy
6:56 PM 78.1 °F - 66.9 °F 68% 29.99 in 10.0 mi West 4.6 mph - N/A   Mostly Cloudy
7:56 PM 75.0 °F - 68.0 °F 79% 30.00 in 10.0 mi Calm Calm - N/A   Overcast
8:56 PM 72.0 °F - 66.0 °F 81% 30.02 in 10.0 mi ENE 4.6 mph - N/A   Clear
9:56 PM 71.1 °F - 66.0 °F 84% 30.04 in 10.0 mi NE 4.6 mph - N/A   Clear
10:56 PM 71.1 °F - 64.0 °F 78% 30.04 in 10.0 mi Calm Calm - N/A   Overcast
11:56 PM 70.0 °F - 63.0 °F 78% 30.05 in 10.0 mi ENE 4.6 mph - N/A   Mostly Cloudy